Home   Weather   Lindau (Bodensee)   Past weeks

Flag for Germany Past Weather in Lindau (Bodensee), Bavaria, Germany — Yesterday and Last 2 Weeks

Now
69 °F

Mild.


Feels Like: 69 °F
Forecast: 63 / 84 °F
Wind: 1 mph from Southwest

Location: Bregenz

Current Time: Aug 17, 2017 at 11:44:40 pm

Latest Report: Aug 17, 2017 at 11:00 pm


Visibility: N/A

Pressure: 30.04 "Hg

Humidity: 82%

Dew Point: 63 °F

Location of Lindau (Bodensee)Location

Past Weather in Lindau (Bodensee) — Graph

°F

Lindau (Bodensee) Temperature Yesterday

Maximum temperature yesterday: 80 °F (at 5:00 pm)
Minimum temperature yesterday: 61 °F (at 4:00 am)
Average temperature yesterday: 69 °F

High & Low Weather Summary for the Past Weeks

 TemperatureHumidityPressure
High90 °F (Aug 3, 5:00 pm)97% (Aug 10, 10:00 pm)30.21 "Hg (Aug 10, 10:00 pm)
Low51 °F (Aug 10, 11:00 pm)36% (Aug 3, 4:00 pm)29.81 "Hg (Aug 8, 9:00 am)
Average67 °F77%30.05 "Hg
* Reported Aug 2 10:00 pm — Aug 17 10:00 pm, Lindau (Bodensee). Weather by CustomWeather, © 2017

Note: Actual official high and low records may vary slightly from our data, if they occured in-between our weather recording intervals... More about our weather records

Advertising

Lindau (Bodensee) Weather History for the Previous 24 Hours

Scroll right to see more
 ConditionsComfort  
Time TempWeatherWind HumidityBarometerVisibility
10:00 pm
Thu, Aug 17
70 °FMild.1 mph79%30.05 "HgN/A
9:00 pm72 °FMild.1 mph77%30.05 "HgN/A
8:00 pm75 °FMild.1 mph74%30.04 "HgN/A
7:00 pm82 °FWarm.1 mph51%30.01 "HgN/A
6:00 pm81 °FWarm.2 mph55%30.01 "HgN/A
5:00 pm81 °FWarm.2 mph52%30.01 "HgN/A
4:00 pm81 °FWarm.1 mph49%30.01 "HgN/A
3:00 pm78 °FWarm.2 mph58%30.04 "HgN/A
2:00 pm77 °FWarm.2 mph56%30.05 "HgN/A
1:00 pm77 °FMild.2 mph56%30.06 "HgN/A
12:00 pm74 °FMild.2 mph64%30.07 "HgN/A
11:00 am74 °FPartly sunny.1 mph62%30.09 "Hg17 mi
10:00 am72 °FMild.1 mph67%30.10 "HgN/A
9:00 am69 °FMild.1 mph78%30.09 "HgN/A
8:00 am65 °FMild.1 mph85%30.10 "HgN/A
7:00 am64 °FPartly sunny.2 mph88%30.09 "Hg16 mi
6:00 am64 °FMild.1 mph86%30.09 "HgN/A
5:00 am64 °FMild.1 mph85%30.09 "HgN/A
4:00 am64 °FMild.1 mph88%30.09 "HgN/A
3:00 am66 °FMild.2 mph83%30.08 "HgN/A
2:00 am66 °FMild.1 mph84%30.10 "HgN/A
1:00 am66 °FMild.1 mph84%30.10 "HgN/A
12:00 am65 °FMild.No wind84%30.11 "HgN/A
11:00 pm
Wed, Aug 16
66 °FMild.No wind82%30.11 "HgN/A
Weather by CustomWeather, © 2017

See weather overviewHow to use our weather pages